Home   Weather   Talcahuano   Past weeks

Flag for Chile Past Weather in Talcahuano, Chile — Yesterday and Last 2 Weeks

Now
52 °F

Clear.


Feels Like: 48 °F
Forecast: 49 / 64 °F
Wind: 12 mph from Southwest

Location: Concepcion Airport

Current Time: Nov 20, 2017 at 1:23:13 am

Latest Report: Nov 20, 2017 at 1:00 am


Visibility: 10 mi

Pressure: 30.01 "Hg

Humidity: 82%

Dew Point: 46 °F

Location of TalcahuanoLocation

Past Weather in Talcahuano — Graph

°F

Talcahuano Temperature Yesterday

Maximum temperature yesterday: 66 °F (at 2:00 pm)
Minimum temperature yesterday: 48 °F (at 6:00 am)
Average temperature yesterday: 58 °F

High & Low Weather Summary for the Past Weeks

 TemperatureHumidityPressure
High72 °F (Nov 11, 4:00 pm)100% (Nov 5, 12:00 am)30.27 "Hg (Nov 5, 12:00 am)
Low45 °F (Nov 18, 4:00 am)21% (Nov 19, 10:00 pm)29.89 "Hg (Nov 11, 8:00 pm)
Average58 °F78%30.05 "Hg
* Reported Nov 5 12:00 am — Nov 20 12:00 am, Talcahuano. Weather by CustomWeather, © 2017

Note: Actual official high and low records may vary slightly from our data, if they occured in-between our weather recording intervals... More about our weather records

Advertising

Talcahuano Weather History for the Previous 24 Hours

Scroll right to see more
 ConditionsComfort  
Time TempWeatherWind HumidityBarometerVisibility
12:00 am
Mon, Nov 20
52 °FClear.13 mph22%29.98 "Hg10 mi
11:00 pm
Sun, Nov 19
52 °FClear.15 mph82%29.98 "Hg10 mi
10:00 pm55 °FClear.16 mph21%29.98 "Hg10 mi
9:00 pm55 °FClear.15 mph77%29.98 "Hg10 mi
8:00 pm59 °FSunny.14 mph68%29.95 "Hg10 mi
7:00 pm63 °FSunny.14 mph64%29.98 "Hg10 mi
6:00 pm64 °FSunny.17 mph64%29.98 "Hg10 mi
5:00 pm66 °FSunny.17 mph56%29.98 "Hg10 mi
4:00 pm66 °FSunny.17 mph56%29.98 "Hg10 mi
3:00 pm66 °FSunny.18 mph56%30.01 "Hg10 mi
2:00 pm66 °FSunny.17 mph60%30.01 "Hg10 mi
1:00 pm64 °FSunny.16 mph64%30.04 "Hg10 mi
12:00 pm63 °FSunny.15 mph64%30.04 "Hg10 mi
11:00 am63 °FSunny.13 mph68%30.04 "Hg10 mi
10:00 am59 °FPassing clouds.10 mph77%30.07 "HgN/A
9:00 am57 °FPassing clouds.8 mph82%30.07 "HgN/A
8:00 am54 °FSunny.5 mph82%30.07 "Hg10 mi
7:00 am48 °FSunny.3 mph87%30.09 "Hg10 mi
6:00 am48 °FClear.3 mph94%30.09 "Hg10 mi
5:00 am50 °FClear.3 mph94%30.09 "Hg10 mi
4:00 am52 °FClear.8 mph94%30.09 "Hg10 mi
3:00 am52 °FClear.9 mph94%30.09 "Hg10 mi
2:00 am52 °FClear.9 mph94%30.09 "Hg10 mi
1:00 am54 °FClear.9 mph88%30.12 "Hg10 mi
Weather by CustomWeather, © 2017

See weather overview